Stations météo

réclame
Mon MeteoGroup
Gibraltar, Grande-Bretagne (8495): Température de l'air & dewpoint: 14.09.2020 20:00:00 - 20.09.2020 20:00:00 (CEST)Gibraltar, Grande-Bretagne (8495): Vitesse du vent & gusts: 14.09.2020 20:00:00 - 20.09.2020 20:00:00 (CEST)Gibraltar, Grande-Bretagne (8495): Direction du vent: 14.09.2020 20:00:00 - 20.09.2020 20:00:00 (CEST)Gibraltar, Grande-Bretagne (8495): reduced air pressure: 14.09.2020 20:00:00 - 20.09.2020 20:00:00 (CEST)Gibraltar, Grande-Bretagne (8495): visibility: 14.09.2020 20:00:00 - 20.09.2020 20:00:00 (CEST)Gibraltar, Grande-Bretagne (8495): Ensoleillement: 14.09.2020 20:00:00 - 20.09.2020 20:00:00 (CEST)
Date & Time tt [°C] td [°C] ff [km/h] ff [knt] fx [km/h] fx [knt] dd ppp [hPa] vv [km] sd [min]
20.09.2020 20:00:00 25,7 17,1 15 8 - - W 1016,9 25 30
20.09.2020 19:00:00 26,6 17,0 16 9 - - SW 1016,6 30 60
20.09.2020 18:00:00 27,1 17,6 15 8 - - SSW 1016,6 30 60
20.09.2020 17:00:00 26,1 17,2 18 10 - - SSW 1016,8 40 60
20.09.2020 16:00:00 25,8 17,6 22 12 - - SSW 1017,5 40 60
20.09.2020 15:00:00 25,4 17,2 18 10 - - SSW 1017,9 40 60
20.09.2020 14:00:00 24,7 17,2 22 12 - - SSW 1018,8 40 60
20.09.2020 13:00:00 25,7 16,8 15 8 - - SW 1019,1 40 60
20.09.2020 12:00:00 24,0 16,3 15 8 - - SSW 1019,3 30 60
20.09.2020 11:00:00 22,2 17,3 13 7 - - WSW 1019,3 30 60
20.09.2020 10:00:00 20,9 17,5 16 9 - - WSW 1019,1 30 60
20.09.2020 09:00:00 20,3 17,7 11 6 - - W 1019,0 25 12
20.09.2020 08:00:00 20,0 17,4 18 10 - - WSW 1018,6 20 0
20.09.2020 07:00:00 20,2 16,8 15 8 - - SW 1018,7 17 0
20.09.2020 06:00:00 20,4 17,6 15 8 - - WSW 1018,7 16 0
20.09.2020 05:00:00 20,4 17,7 24 13 - - W 1018,8 17 0
20.09.2020 04:00:00 20,5 17,4 22 12 - - W 1019,4 16 0
20.09.2020 03:00:00 20,9 17,6 22 12 - - W 1019,7 16 0
20.09.2020 02:00:00 20,8 17,8 22 12 - - W 1019,9 17 -
20.09.2020 01:00:00 20,9 18,0 18 10 - - W 1019,8 16 0
20.09.2020 00:00:00 21,3 18,2 28 15 - - W 1020,0 17 0
19.09.2020 23:00:00 22,0 17,4 31 17 - - WNW 1019,4 18 0
19.09.2020 22:00:00 22,6 17,2 24 13 - - WNW 1019,1 18 0
19.09.2020 21:00:00 22,9 18,1 21 11 - - W 1018,2 18 6
19.09.2020 20:00:00 23,7 18,5 24 13 - - W 1017,9 20 60
19.09.2020 19:00:00 24,7 18,2 24 13 - - W 1017,8 20 60
19.09.2020 18:00:00 25,7 17,4 24 13 - - W 1017,5 20 36
19.09.2020 17:00:00 25,9 16,7 18 10 - - WSW 1017,8 20 24
19.09.2020 16:00:00 26,4 17,0 24 13 - - WSW 1018,1 20 60
19.09.2020 15:00:00 26,3 16,1 18 10 - - SW 1018,5 20 48
19.09.2020 14:00:00 25,8 16,8 18 10 - - WSW 1019,1 20 30
19.09.2020 13:00:00 24,2 17,5 11 6 - - S 1019,4 20 12
19.09.2020 12:00:00 23,6 17,7 18 10 - - S 1019,4 20 60
19.09.2020 11:00:00 22,8 17,8 15 8 - - SSW 1019,0 20 60
19.09.2020 10:00:00 22,0 18,0 15 8 - - SSW 1018,6 20 48
19.09.2020 09:00:00 21,3 18,2 18 10 - - SW 1018,1 20 12
19.09.2020 08:00:00 21,5 17,8 15 8 - - SW 1017,7 15 0
19.09.2020 07:00:00 21,4 18,2 16 9 - - WSW 1017,5 12 0
19.09.2020 06:00:00 21,4 18,6 15 8 - - SW 1017,4 12 0
19.09.2020 05:00:00 21,6 18,7 15 8 - - SW 1017,3 14 0
19.09.2020 04:00:00 21,5 18,9 22 12 - - SW 1017,5 12 0
19.09.2020 03:00:00 21,8 18,7 18 10 - - SW 1017,5 13 0
19.09.2020 02:00:00 22,0 18,9 15 8 - - SW 1017,7 13 -
19.09.2020 01:00:00 22,6 18,1 16 9 - - SW 1017,8 15 0
19.09.2020 00:00:00 22,9 18,1 18 10 - - SW 1017,9 15 0
18.09.2020 23:00:00 23,0 18,6 22 12 - - SW 1017,5 15 0
18.09.2020 22:00:00 23,3 18,1 24 13 - - SW 1016,7 15 0
18.09.2020 21:00:00 23,6 18,6 24 13 - - SW 1016,0 14 0
18.09.2020 20:00:00 24,2 18,2 22 12 46 25 WSW 1015,4 20 24
18.09.2020 19:00:00 25,3 17,5 26 14 46 25 WSW 1015,0 20 60
18.09.2020 18:00:00 26,0 16,6 24 13 - - WSW 1014,7 20 60
18.09.2020 17:00:00 26,5 17,3 22 12 - - WSW 1014,8 20 36
18.09.2020 16:00:00 25,1 17,7 11 6 - - SSW 1015,1 20 12
18.09.2020 15:00:00 24,3 19,6 18 10 - - ESE 1014,8 20 24
18.09.2020 14:00:00 25,6 18,7 13 7 - - S 1014,6 20 36
18.09.2020 13:00:00 26,0 18,6 9 5 - - S 1014,3 20 60
18.09.2020 12:00:00 23,5 20,2 8 4 - - ENE 1014,4 15 36
18.09.2020 11:00:00 22,4 20,5 11 6 - - E 1013,7 15 6
18.09.2020 10:00:00 21,6 19,9 16 9 - - E 1012,9 12 0
18.09.2020 09:00:00 21,2 19,7 15 8 - - ESE 1013,5 10 0
18.09.2020 08:00:00 21,4 20,1 18 10 - - E 1012,8 9 0
18.09.2020 07:00:00 21,9 19,4 16 9 - - SE 1012,6 12 0
18.09.2020 06:00:00 21,7 19,1 13 7 - - ESE 1012,9 12 0
18.09.2020 05:00:00 21,8 18,9 15 8 - - ESE 1013,4 12 0
18.09.2020 04:00:00 21,8 18,5 22 12 57 31 SSE 1014,3 14 0
18.09.2020 03:00:00 23,2 17,5 15 8 - - E 1014,4 18 0
18.09.2020 02:00:00 22,7 18,0 8 4 - - S 1014,7 17 -
18.09.2020 01:00:00 23,5 18,0 15 8 - - SSW 1015,1 17 0
18.09.2020 00:00:00 24,1 17,5 15 8 54 29 S 1014,6 18 0
17.09.2020 23:00:00 24,6 17,7 16 9 - - S 1015,0 18 0
17.09.2020 22:00:00 24,2 17,9 5 3 - - SSW 1014,2 17 0
17.09.2020 21:00:00 23,6 18,3 11 6 - - SSW 1013,4 16 0
17.09.2020 20:00:00 22,9 19,3 8 4 - - E 1013,5 11 0
17.09.2020 19:00:00 23,6 22,2 16 9 - - ESE 1013,6 12 0
17.09.2020 18:00:00 23,4 21,8 11 6 - - ENE 1013,5 7 0
17.09.2020 17:00:00 24,0 22,2 13 7 - - NNE 1013,7 7 0
17.09.2020 16:00:00 24,0 22,0 22 12 - - NE 1013,3 8 0
17.09.2020 15:00:00 23,9 22,0 15 8 - - NE 1013,7 7 0
17.09.2020 14:00:00 23,8 21,9 18 10 - - NE 1014,0 7 0
17.09.2020 13:00:00 23,9 21,8 18 10 - - ENE 1014,5 8 0
17.09.2020 12:00:00 23,4 22,0 16 9 - - NE 1015,1 7 0
17.09.2020 11:00:00 23,2 22,1 18 10 - - NE 1014,7 6 0
17.09.2020 10:00:00 23,1 22,1 21 11 - - NE 1014,8 5 0
17.09.2020 09:00:00 22,8 21,7 11 6 - - ENE 1014,5 6 0
17.09.2020 08:00:00 22,9 21,8 15 8 - - NE 1014,2 7 0
17.09.2020 07:00:00 22,6 21,5 16 9 - - ENE 1013,8 7 0
17.09.2020 06:00:00 22,5 21,5 22 12 - - ENE 1014,1 7 0
17.09.2020 05:00:00 22,7 21,8 16 9 - - ESE 1014,4 7 0
17.09.2020 04:00:00 22,6 21,4 18 10 - - E 1015,2 8 0
17.09.2020 03:00:00 22,8 21,5 13 7 - - ESE 1015,5 8 0
17.09.2020 02:00:00 22,9 21,5 13 7 - - E 1016,5 8 -
17.09.2020 01:00:00 23,0 21,5 22 12 - - E 1016,3 8 0
17.09.2020 00:00:00 23,0 21,3 15 8 - - SE 1016,5 9 0
16.09.2020 23:00:00 23,1 21,3 22 12 - - ESE 1016,7 9 0
16.09.2020 22:00:00 23,3 21,5 24 13 - - E 1015,9 9 0
16.09.2020 21:00:00 23,2 21,4 15 8 - - E 1016,3 9 0
16.09.2020 20:00:00 23,3 21,4 8 4 - - E 1016,4 10 0
16.09.2020 19:00:00 23,8 21,3 11 6 - - E 1016,2 10 0
16.09.2020 18:00:00 24,0 21,1 13 7 - - ESE 1016,0 9 36
16.09.2020 17:00:00 24,3 21,4 13 7 - - ESE 1016,2 10 60
16.09.2020 16:00:00 24,0 21,5 15 8 - - E 1016,4 10 30
16.09.2020 15:00:00 23,9 21,6 13 7 - - ESE 1017,4 9 48
16.09.2020 14:00:00 23,6 21,7 18 10 - - E 1017,7 9 42
16.09.2020 13:00:00 23,9 21,5 15 8 - - E 1018,5 10 24
16.09.2020 12:00:00 22,7 20,8 9 5 - - ESE 1019,0 10 0
16.09.2020 11:00:00 22,8 20,9 9 5 - - E 1018,7 10 0
16.09.2020 10:00:00 22,3 20,7 8 4 - - E 1018,8 10 0
16.09.2020 09:00:00 22,3 20,6 9 5 - - E 1018,6 8 0
16.09.2020 08:00:00 22,2 21,0 9 5 - - E 1018,1 8 0
16.09.2020 07:00:00 22,3 20,9 11 6 - - NE 1018,4 8 0
16.09.2020 06:00:00 22,5 21,2 11 6 - - NE 1018,7 8 0
16.09.2020 05:00:00 22,7 21,3 13 7 - - NNE 1019,0 8 0
16.09.2020 04:00:00 22,8 21,3 11 6 - - NNE 1019,5 8 0
16.09.2020 03:00:00 22,9 21,2 11 6 - - NE 1019,8 9 0
16.09.2020 02:00:00 23,0 21,1 13 7 - - NNE 1020,1 9 -
16.09.2020 01:00:00 22,9 21,4 9 5 - - NE 1020,1 8 0
16.09.2020 00:00:00 23,2 21,5 9 5 - - NE 1020,1 9 0
15.09.2020 23:00:00 23,2 21,8 8 4 - - NE 1020,0 9 0
15.09.2020 22:00:00 23,4 21,7 8 4 - - E 1019,6 9 0
15.09.2020 21:00:00 23,4 21,5 8 4 - - ENE 1019,0 9 0
15.09.2020 20:00:00 24,1 21,6 11 6 - - E 1019,1 10 60
15.09.2020 19:00:00 24,7 21,5 11 6 - - ESE 1019,1 10 60
15.09.2020 18:00:00 24,7 20,9 11 6 - - ESE 1019,2 12 60
15.09.2020 17:00:00 25,3 21,0 16 9 - - E 1019,7 14 60
15.09.2020 16:00:00 25,4 20,7 16 9 - - ESE 1020,2 16 60
15.09.2020 15:00:00 25,4 20,4 15 8 - - E 1020,8 18 60
15.09.2020 14:00:00 25,2 20,9 13 7 - - E 1021,3 15 24
15.09.2020 13:00:00 23,7 20,6 11 6 - - E 1022,0 12 0
15.09.2020 12:00:00 23,4 20,7 11 6 - - E 1022,1 12 0
15.09.2020 11:00:00 23,1 20,4 11 6 - - E 1021,7 12 0
15.09.2020 10:00:00 22,9 20,2 5 3 - - ENE 1021,2 11 0
15.09.2020 09:00:00 23,0 20,0 11 6 - - E 1020,6 20 0
15.09.2020 08:00:00 23,0 19,4 9 5 - - E 1020,1 15 0
15.09.2020 07:00:00 23,0 19,8 9 5 - - E 1019,8 12 0
15.09.2020 06:00:00 22,7 20,4 9 5 - - ENE 1020,0 10 0
15.09.2020 05:00:00 22,9 20,4 11 6 - - E 1020,4 12 0
15.09.2020 04:00:00 22,8 20,7 13 7 - - E 1020,7 12 0
15.09.2020 03:00:00 22,9 20,7 18 10 - - E 1020,9 10 0
15.09.2020 02:00:00 22,8 20,8 21 11 - - ENE 1021,1 10 -
15.09.2020 01:00:00 22,9 21,0 18 10 - - NE 1021,3 12 0
15.09.2020 00:00:00 22,7 21,2 18 10 - - ENE 1021,2 10 0
14.09.2020 23:00:00 23,0 21,2 18 10 - - E 1021,1 10 0
14.09.2020 22:00:00 23,0 21,2 22 12 - - ENE 1020,3 10 0
14.09.2020 21:00:00 23,2 21,0 21 11 - - ENE 1019,8 10 0
14.09.2020 20:00:00 23,4 21,1 18 10 - - ENE 1019,6 12 0

tt = Température de l'air
td = dewpoint
ff = Vitesse du vent
fx = gusts
dd = Direction du vent
ppp = reduced air pressure
vv = visibility
sd = Ensoleillement

stations d'obs. à proximité